Location: Ahausen
(50.4985°N, 8.2722°E)
Time: 07:08:13
(UTC+00:00)

Cosmos 2266 Rocket - Pass Details

Date: 18 September 2020
Orbit: 934 x 1008 km, 82.9° (Epoch: 21 October)

Event Time Altitude Azimuth Distance (km) Brightness Sun altitude
Rises 20:57:36 0° 350° (N) 3,619 7.8 -29.8°
Reaches altitude 10° 21:00:06 10° 351° (N) 2,665 6.9 -30.0°
Enters shadow 21:05:35 73° 7° (N) 980 4.0 -30.6°
